Location: Kearney
(40.6990°N, 99.0810°W)
Time: 11:22:25
(UTC-05:00)

Daily predictions for brighter satellites

Satellite Brightness Start Highest point End
(mag) Time Altitude Azimuth Time Altitude Azimuth Time Altitude Azimuth
Cosmos 2344 3.9 20:03:12 10° S 20:10:23 45° ESE 20:18:06 10° NE
METEOR-M 4.2 20:10:11 10° SSE 20:15:31 88° WSW 20:20:54 10° NNW
Helios 1B rocket 4.2 20:14:25 10° ENE 20:16:18 13° E 20:18:09 10° ESE
Cosmos 1437 Rocket 3.1 20:17:13 10° SSE 20:21:02 46° E 20:24:56 10° NNE
SJ-6B 2.6 20:18:29 10° SSE 20:22:12 72° ENE 20:25:56 10° N
Lacrosse 4 Rocket 1.3 20:21:02 10° SSW 20:25:03 68° ESE 20:29:05 10° NNE
Resurs 1-3 4.2 20:25:37 10° SE 20:29:38 37° ENE 20:33:41 10° N
Cosmos 2098 4.4 20:29:58 10° S 20:33:26 79° W 20:36:28 10° N
Spot 2 Rocket 3.6 20:34:40 10° SSE 20:39:38 56° ENE 20:44:39 10° N
Cosmos 1844 Rocket 2.8 20:34:30 10° SSW 20:40:10 82° WNW 20:45:51 10° NNE
Cosmos 2150 Rocket 3.9 20:36:19 10° SSW 20:41:27 81° ESE 20:46:38 10° NNE
USA 215 3.7 20:40:00 10° ENE 20:46:05 40° SE 20:52:07 10° SSW
Tiangong 1 0.8 20:44:04 10° WNW 20:47:00 81° N 20:48:48 21° E
CZ-3 Stage 3 4.4 19:47:12 10° WSW 20:47:08 57° S 20:54:42 15° ESE
Cosmos 1378 3.1 20:44:07 10° N 20:47:54 89° E 20:51:39 10° S
SAR-Lupe-4 4.4 20:45:20 13° SE 20:48:03 31° ENE 20:51:15 10° N
FengYun 1-2 T 4.3 20:43:48 10° SSE 20:49:21 88° WSW 20:55:00 10° NNW
Cosmos 2278 Rocket 2.4 20:44:08 10° S 20:49:35 50° ESE 20:55:03 10° NE
Cosmos 1833 Rocket 4.1 20:46:02 10° N 20:50:06 20° NE 20:52:40 15° E
Cosmos 1939 Rocket 4.5 20:49:27 16° E 20:50:38 18° ENE 20:53:28 10° NNE
Cosmos 1953 3.4 20:49:00 10° SE 20:52:19 24° E 20:55:38 10° NE
Cosmos 1898 Rocket 4.2 20:49:06 10° SSW 20:54:21 60° WNW 20:59:36 10° NNE
Cosmos 990 Rocket 3.9 20:49:55 10° SSW 20:55:09 81° ESE 21:00:26 10° NNE
Okean 3 Rocket 4.0 20:51:19 10° N 20:55:29 41° ENE 20:59:28 11° SSE
Cosmos 1934 Rocket 3.9 20:50:08 10° S 20:56:17 81° E 21:02:24 10° N
USA 186 1.8 20:56:32 29° ENE 20:56:32 29° ENE 20:58:27 10° N
Abrixas 4.2 20:54:33 10° NW 20:56:53 22° NNE 20:58:09 17° NE
H-2A R/B 2.7 20:53:32 10° SSE 20:57:24 89° WSW 21:01:21 10° NNW
Envisat 3.8 20:54:30 16° ESE 20:57:38 30° ENE 21:02:03 10° N
FENGYUN 3A 4.1 20:54:18 10° S 20:59:39 66° WSW 21:05:03 10° NNW
Cosmos 2297 4.5 20:57:15 10° SSE 21:02:03 29° ESE 21:06:52 10° NE
BREEZE-M DEB (TANK) 4.4 21:01:07 10° NNW 21:02:26 13° N 21:03:40 11° NE
Cosmos 1125 Rocket 4.1 20:58:26 10° SSE 21:02:57 31° E 21:07:30 10° NE
Meteor 1-24 Rocket 3.8 20:59:27 10° NNW 21:04:56 81° W 21:10:35 10° S
SAR-Lupe-1 4.3 21:05:36 24° SE 21:07:27 46° ENE 21:10:54 10° N
BREEZE-M DEB (TANK) 3.0 21:09:38 10° SW 21:12:24 85° SE 21:19:49 10° ENE
Geosat 4.0 21:07:28 10° NNE 21:12:32 88° WNW 21:17:33 10° SSW
Lacrosse 5 rocket 3.5 21:12:02 10° N 21:13:48 13° NNE 21:15:09 11° NE
CZ-4B DEB 3.1 21:14:22 39° ENE 21:14:23 39° ENE 21:17:18 10° N
Meteor 1-4 Rocket 2.8 21:14:46 38° ESE 21:15:15 40° E 21:18:33 10° NNE
ALOS 3.7 21:11:17 10° SSW 21:15:38 39° W 21:20:02 10° NNW
Cosmos 1544 3.0 21:13:33 10° S 21:17:08 63° E 21:20:46 10° NNE
GP-B 3.4 21:14:49 23° SE 21:17:11 44° E 21:21:25 10° NNE
Cosmos 1766 3.8 21:13:30 10° SSW 21:17:18 58° W 21:21:10 10° N
Resurs 01 Rocket 2.4 21:13:56 10° S 21:18:14 54° W 21:22:35 10° NNW
USA 267 4.4 21:14:41 16° ENE 21:18:51 30° NNE 21:24:19 10° NW
RESURS DK-1 2.4 21:15:21 10° NNW 21:19:30 80° WSW 21:22:06 22° SSE
Cosmos 2082 Rocket 2.9 21:14:32 10° N 21:19:46 36° ENE 21:21:38 29° E
SL-27 R/B 3.0 21:18:03 10° NNW 21:21:35 60° WSW 21:24:15 17° S
Cosmos 1818 3.9 21:18:46 10° NNW 21:24:02 47° NE 21:26:01 33° ESE
ERS-1 Rocket 3.8 21:23:31 29° E 21:24:12 30° ENE 21:28:32 10° N
Meteor 1-29 2.9 21:21:27 10° NNE 21:24:53 61° E 21:26:20 31° S
COSMOS 2487 4.0 21:22:32 10° N 21:24:44 23° NE 21:24:44 23° NE
Lacrosse 5 2.0 21:27:10 10° SW 21:32:14 74° NW 21:37:19 10° NE
Timation 1 Rocket 4.3 21:27:03 10° S 21:32:58 65° ESE 21:38:56 10° NNE
Cosmos 2100 Rocket 4.2 21:28:37 16° SSE 21:33:25 47° E 21:39:27 10° NNE
Cosmos 1605 Rocket 4.2 21:27:57 10° SSW 21:34:09 74° W 21:40:32 10° N
Cosmos 1766 Rocket 3.7 21:30:12 10° N 21:34:36 52° E 21:35:09 48° ESE
Cosmos 1076 Rocket 3.3 21:31:05 10° N 21:35:20 74° E 21:36:38 43° SSE
OE (NEXTSAT) 4.2 21:32:11 10° WSW 21:35:47 89° SSE 21:36:03 76° ENE
Delta 2 Rocket 4.4 21:32:36 10° WSW 21:36:39 32° SSW 21:37:14 31° S
SPOT 5 4.4 21:37:51 23° ENE 21:37:51 23° ENE 21:41:33 10° NNE
Cosmos 1269 Rocket 4.1 21:34:11 10° N 21:39:23 56° ENE 21:40:35 45° ESE
Cosmos 2098 Rocket 4.3 21:34:28 10° S 21:41:26 85° E 21:49:06 10° N
Meteor 1-21 Rocket 4.2 21:39:13 10° N 21:45:02 82° E 21:48:21 28° SSE
ARGOS 4.4 21:48:13 24° NE 21:48:13 24° NE 21:51:42 10° NNE
Cosmos 468 4.5 21:43:31 10° NNW 21:48:46 84° WSW 21:50:47 39° SSE
CZ-3B DEB 3.5 21:39:58 10° WSW 21:49:58 49° NW 21:54:17 12° NE
Cosmos 1802 Rocket 4.1 21:49:52 45° ESE 21:50:51 50° E 21:56:45 10° NNE
Helios 1B rocket 3.3 21:47:52 10° N 21:51:53 50° WNW 21:55:51 10° SSW
Helios 1A 4.0 21:50:45 18° SSW 21:53:28 43° W 21:57:27 10° NNW
Cosmos 1805 4.5 21:50:18 10° SSW 21:54:00 41° WNW 21:57:44 10° N
Cosmos 1674 3.1 21:50:34 10° N 21:53:31 53° N 21:53:31 53° N
Cosmos-2242 3.5 21:58:47 48° NNE 21:58:47 48° NNE 22:01:56 10° N
Cosmos 1867 3.4 21:53:08 10° SSW 21:58:33 73° ESE 22:04:01 10° NE
Cosmos 2061 Rocket 4.0 21:56:15 36° SSE 21:58:53 64° E 22:05:15 10° NNE
Timation 2 Rocket 3.9 21:57:32 10° NNW 22:03:52 67° ENE 22:04:44 59° ESE
Cosmos 1340 Rocket 4.0 22:00:29 10° N 22:02:52 33° N 22:02:52 33° N
Cosmos 1470 4.4 22:09:00 27° N 22:09:00 27° N 22:10:54 10° N
Cosmos 372 Rocket 4.0 22:09:18 10° SSW 22:14:23 77° WNW 22:19:34 10° NNE
H-2A R/B 3.7 22:26:32 24° NNE 22:26:32 24° NNE 22:29:07 10° N
Cosmos 1939 Rocket 4.3 22:25:22 37° W 22:25:22 37° W 22:29:08 10° NNW
Cosmos 158 Rocket 4.3 22:24:01 10° NNW 22:28:50 63° W 22:28:50 63° W
USA 215 3.7 22:22:48 10° NE 22:29:13 60° NW 22:35:36 10° WSW
Cosmos 1459 Rocket 4.3 22:29:44 25° SSW 22:33:28 64° W 22:39:39 10° N
Cosmos 2278 Rocket 4.3 22:29:19 10° WSW 22:33:55 25° NW 22:38:34 10° N
Cosmos 1833 Rocket 2.9 22:28:57 10° NNW 22:34:24 65° WSW 22:34:24 65° WSW
Cosmos 2173 Rocket 4.3 22:32:36 31° SSW 22:35:38 62° W 22:41:50 10° N
Lacrosse 5 rocket 4.0 22:50:04 10° NW 22:50:52 15° NNW 22:50:52 15° NNW
USA 267 3.4 23:02:01 66° N 23:02:01 66° N 23:07:43 10° NW
Cosmos 2082 Rocket 3.6 22:58:45 10° NW 23:03:31 32° W 23:03:31 32° W
Lacrosse 5 4.1 23:12:15 10° WNW 23:15:59 20° NNW 23:16:45 19° NNW
